Total_Precipitation_Accumulation
1.25 1.03 0.55 0.65 0.91 0.44 0.57 0.77 0.78 0.52 0.48 0.46 0.52 0.62 0.46 0.25 0.08 0.05 0.02 0.02 0.03 0.03 0.02 0.15 0.21 0.21 0.30 0.28 0.48 0.68 0.71 0.23 0.13 0.07 0.06 0.06 0.05 0.02 0.00 0.00 0.00 0.00 0.01 0.00 0.01 0.01 0.00 0.00 0.00 0.00 0.00 0.00 0.00 0.00 0.00 0.00 0.00 0.00 0.00 0.00 0.01 0.01 0.00 0.00 0.00 0.00 0.00 0.00 0.00 0.00 0.00 0.00 0.00 0.00 0.00 0.01 0.01 0.00 0.00 0.00 0.01 0.01 0.02 0.04 0.03
1.05 0.84 0.69 0.52 0.74 0.39 0.44 0.47 0.53 0.51 0.35 0.31 1.01 0.70 0.38 0.18 0.16 0.07 0.02 0.02 0.02 0.01 0.05 0.11 0.09 0.18 0.36 0.42 0.92 1.04 0.34 0.85 0.12 0.26 0.11 0.08 0.04 0.03 0.00 0.00 0.00 0.00 0.00 0.01 0.02 0.01 0.00 0.00 0.00 0.00 0.00 0.00 0.00 0.00 0.01 0.00 0.00 0.00 0.00 0.01 0.00 0.01 0.00 0.00 0.00 0.00 0.00 0.00 0.00 0.00 0.00 0.01 0.01 0.01 0.01 0.01 0.01 0.01 0.01 0.01 0.02 0.01 0.01 0.02 0.01
0.99 0.69 0.51 0.62 0.87 0.82 0.57 0.42 0.42 0.41 0.54 0.56 0.54 0.54 0.42 0.35 0.29 0.07 0.06 0.04 0.07 0.02 0.02 0.19 0.15 0.32 0.46 0.17 0.83 1.07 0.90 1.21 0.86 0.62 0.50 0.22 0.09 0.06 0.05 0.00 0.00 0.00 0.00 0.00 0.00 0.00 0.00 0.00 0.00 0.00 0.00 0.00 0.01 0.00 0.00 0.00 0.00 0.00 0.00 0.00 0.00 0.00 0.01 0.00 0.00 0.00 0.00 0.00 0.00 0.00 0.00 0.01 0.01 0.01 0.01 0.01 0.01 0.00 0.01 0.01 0.01 0.02 0.01 0.01 0.01
1.10 0.88 0.82 0.53 0.93 0.94 0.78 0.61 0.60 0.75 0.72 0.90 0.78 0.41 0.37 0.24 0.20 0.08 0.20 0.26 0.21 0.06 0.02 0.06 0.09 0.33 0.27 0.95 0.96 1.28 0.88 0.78 0.70 0.92 0.92 0.38 0.18 0.09 0.09 0.07 0.00 0.00 0.00 0.00 0.00 0.00 0.01 0.01 0.01 0.01 0.01 0.01 0.01 0.00 0.00 0.00 0.00 0.00 0.01 0.04 0.00 0.00 0.00 0.02 0.00 0.00 0.00 0.00 0.00 0.00 0.01 0.01 0.01 0.01 0.01 0.01 0.01 0.00 0.00 0.00 0.00 0.01 0.01 0.01 0.01
0.87 0.71 0.74 0.70 0.62 0.99 0.72 0.81 0.57 0.81 0.75 0.53 0.35 0.32 0.26 0.09 0.05 0.08 0.29 0.33 0.29 0.24 0.10 0.13 0.06 0.21 0.21 0.70 0.45 0.47 0.67 1.03 0.79 1.24 1.23 0.42 0.45 0.25 0.15 0.08 0.14 0.00 0.00 0.00 0.00 0.00 0.00 0.00 0.00 0.01 0.02 0.02 0.00 0.00 0.00 0.00 0.00 0.00 0.00 0.02 0.00 0.00 0.00 0.02 0.01 0.00 0.00 0.00 0.00 0.00 0.01 0.01 0.01 0.01 0.01 0.01 0.00 0.01 0.00 0.00 0.01 0.00 0.00 0.02 0.01
1.44 1.40 1.05 1.11 0.75 0.67 1.06 0.92 0.72 1.03 0.85 0.49 0.75 0.37 0.23 0.35 0.11 0.08 0.32 0.46 0.59 0.26 0.29 0.19 0.26 0.24 0.56 0.65 0.87 0.68 0.88 0.47 0.78 0.88 0.79 1.02 0.73 0.52 0.39 0.27 0.15 0.17 0.07 0.00 0.00 0.00 0.00 0.00 0.01 0.01 0.00 0.00 0.00 0.00 0.00 0.00 0.00 0.00 0.00 0.01 0.01 0.00 0.00 0.01 0.01 0.01 0.00 0.00 0.00 0.00 0.00 0.00 0.00 0.01 0.01 0.01 0.01 0.01 0.00 0.00 0.01 0.01 0.00 0.01 0.01
1.23 0.84 1.01 0.60 0.59 0.99 1.24 0.81 0.96 0.81 1.08 0.91 0.54 0.58 0.55 0.40 0.21 0.25 0.32 0.64 0.53 0.38 0.30 0.86 0.38 0.54 0.58 0.97 1.54 1.32 0.59 1.33 0.84 0.62 0.39 0.57 0.40 0.71 0.54 0.32 0.19 0.18 0.14 0.11 0.00 0.00 0.00 0.00 0.04 0.01 0.01 0.01 0.03 0.04 0.01 0.01 0.00 0.00 0.00 0.00 0.03 0.02 0.01 0.02 0.01 0.01 0.01 0.00 0.00 0.00 0.00 0.01 0.01 0.01 0.00 0.00 0.01 0.01 0.01 0.01 0.00 0.00 0.01 0.01 0.00
0.96 1.46 0.68 0.64 0.59 0.70 1.01 1.12 0.66 0.75 1.11 1.35 0.67 1.04 0.72 0.86 0.71 0.47 0.31 0.68 0.80 0.84 0.72 0.74 0.50 0.56 0.96 1.04 1.20 0.64 1.28 1.40 1.45 0.99 0.42 0.46 0.83 0.74 0.70 0.53 0.72 0.45 0.24 0.22 0.22 0.12 0.00 0.00 0.01 0.02 0.03 0.03 0.06 0.07 0.06 0.05 0.06 0.04 0.05 0.03 0.01 0.02 0.01 0.01 0.05 0.03 0.01 0.00 0.00 0.00 0.01 0.01 0.00 0.00 0.00 0.00 0.01 0.01 0.01 0.01 0.02 0.01 0.01 0.01 0.01
1.29 1.12 0.86 0.76 0.45 0.51 0.74 1.19 0.94 0.68 1.13 0.67 0.80 0.62 0.87 0.54 0.54 0.48 0.62 0.74 0.77 0.63 1.05 1.45 0.78 1.04 1.02 1.32 1.89 1.51 1.04 1.74 1.25 1.13 1.26 0.86 1.62 1.40 0.81 1.05 1.26 0.49 0.69 0.32 0.36 0.39 0.06 0.01 0.01 0.01 0.01 0.03 0.05 0.06 0.15 0.22 0.20 0.28 0.20 0.17 0.25 0.16 0.03 0.06 0.04 0.07 0.09 0.08 0.03 0.03 0.02 0.01 0.03 0.04 0.01 0.01 0.01 0.01 0.01 0.02 0.01 0.02 0.02 0.02 0.01
0.66 0.71 1.09 0.63 0.72 0.93 0.74 2.24 1.52 0.95 0.77 0.83 0.66 0.64 0.97 0.67 0.49 0.51 0.62 0.71 0.66 0.92 1.04 1.02 1.26 1.15 1.52 2.24 2.08 1.65 1.42 1.61 1.66 1.17 1.58 1.44 1.73 1.76 1.89 1.06 0.56 0.89 0.63 0.52 0.55 0.37 0.32 0.16 0.01 0.00 0.00 0.01 0.03 0.18 0.39 0.62 0.79 0.65 0.59 0.41 0.47 0.39 0.40 0.70 0.61 0.15 0.12 0.23 0.22 0.08 0.03 0.03 0.07 0.10 0.14 0.10 0.08 0.02 0.02 0.02 0.02 0.02 0.02 0.02 0.03
0.59 0.65 0.60 0.77 0.68 0.64 0.70 0.94 1.18 1.06 1.07 1.02 1.30 0.83 0.76 0.60 0.62 0.41 0.54 0.69 0.63 0.75 0.91 1.32 1.30 1.64 1.62 1.88 1.73 1.35 1.17 1.31 1.31 1.16 1.36 1.39 2.43 1.84 1.15 0.94 0.92 0.86 0.70 0.79 0.56 0.42 0.38 0.44 0.59 0.51 0.25 0.01 0.12 0.24 0.48 0.85 0.73 0.87 0.87 1.09 0.82 0.86 0.76 0.59 0.72 0.20 0.22 0.35 0.34 0.16 0.05 0.03 0.03 0.06 0.04 0.08 0.09 0.08 0.07 0.05 0.04 0.04 0.02 0.02 0.03
0.25 0.58 0.53 0.86 0.51 0.84 0.50 0.51 1.15 1.16 1.34 0.93 0.78 0.94 0.94 1.02 0.72 0.89 0.72 0.66 0.58 1.14 0.91 0.94 1.06 1.23 1.53 0.92 0.84 0.85 1.30 1.18 1.08 1.40 1.33 1.49 1.64 1.59 1.42 1.24 1.34 1.09 0.81 0.89 0.66 0.98 0.58 0.58 0.54 0.62 0.22 0.16 0.14 0.15 0.16 0.23 0.12 0.61 0.90 0.78 1.08 0.98 0.60 0.72 1.14 0.39 0.54 0.25 0.24 0.15 0.08 0.17 0.07 0.07 0.09 0.13 0.15 0.17 0.15 0.13 0.07 0.10 0.05 0.04 0.05
1.11 1.14 0.83 0.58 0.48 0.78 0.57 0.57 0.58 0.49 0.74 0.95 0.88 1.03 1.50 1.09 1.08 1.15 0.99 1.24 0.83 0.52 1.44 1.34 0.75 0.78 1.04 0.61 0.71 0.92 1.11 1.50 1.43 1.80 1.83 2.20 1.92 2.06 1.29 1.07 1.09 1.00 1.35 1.29 1.02 0.77 1.10 1.09 0.49 0.66 0.63 0.45 0.20 0.03 0.01 0.03 0.06 0.23 0.44 0.67 1.32 1.91 1.41 0.89 1.24 0.69 0.40 0.45 0.40 0.33 0.28 0.21 0.18 0.14 0.09 0.14 0.18 0.17 0.23 0.26 0.18 0.14 0.08 0.06 0.10
0.88 0.61 0.45 0.61 0.74 0.43 0.48 0.58 0.91 0.78 0.90 0.72 0.64 0.96 0.91 0.66 0.89 0.99 0.99 1.10 0.76 0.54 0.84 1.07 0.87 0.70 0.69 0.55 0.64 0.65 1.14 1.13 1.08 1.30 1.45 1.10 1.32 1.83 1.79 1.21 1.41 0.81 0.67 0.86 1.27 1.06 1.18 0.96 0.82 0.74 0.51 0.63 0.75 0.40 0.59 0.34 0.05 0.13 0.22 0.72 0.86 2.19 2.07 1.27 1.37 1.45 0.52 0.38 0.34 0.20 0.21 0.13 0.27 0.19 0.17 0.18 0.23 0.20 0.19 0.16 0.13 0.12 0.13 0.09 0.06
0.56 0.77 0.65 0.59 0.74 0.50 0.45 1.31 1.11 0.77 0.91 0.88 0.72 1.04 0.87 0.86 1.03 0.73 1.02 0.90 0.82 0.94 1.02 0.54 1.04 1.41 1.69 1.10 0.63 0.90 0.94 0.85 0.85 0.93 1.11 1.29 1.37 1.26 1.42 1.51 1.47 1.16 1.05 1.07 1.05 1.03 1.07 1.26 1.34 1.33 0.56 0.63 0.68 0.40 0.33 0.25 0.28 0.02 0.12 0.22 0.46 1.38 1.93 1.65 1.44 0.86 0.97 0.45 0.44 0.32 0.29 0.23 0.19 0.22 0.29 0.47 0.46 0.20 0.25 0.24 0.31 0.12 0.06 0.07 0.06
0.46 0.65 0.33 0.54 0.72 0.76 0.89 1.31 1.79 0.96 0.84 0.84 0.77 0.73 0.65 0.70 0.98 1.06 1.76 1.30 0.33 0.52 1.19 2.13 1.48 1.48 1.09 1.13 1.37 0.56 0.79 0.98 0.88 0.92 0.90 0.75 0.87 1.30 1.50 2.02 1.46 1.38 1.89 1.16 1.17 1.08 0.98 0.49 0.87 0.51 0.37 0.38 0.36 0.52 0.62 0.93 0.09 0.02 0.02 0.02 0.07 0.36 1.32 1.71 1.07 1.45 0.81 0.41 0.35 0.50 0.27 0.28 0.23 0.13 0.19 0.17 0.24 0.56 0.57 0.24 0.25 0.17 0.16 0.09 0.14
0.66 0.84 0.58 0.43 0.47 0.68 0.85 0.71 1.11 0.93 0.81 0.72 0.54 0.53 0.57 0.76 1.30 1.01 0.37 0.72 0.82 1.54 1.27 1.33 1.93 0.96 1.05 1.27 0.97 0.67 0.77 0.81 0.41 0.84 1.00 0.82 0.77 0.46 0.90 1.14 1.17 1.07 0.83 0.62 0.55 0.55 1.42 0.96 0.81 0.39 0.36 0.35 0.41 0.78 0.74 0.40 0.27 0.23 0.07 0.02 0.01 0.08 0.14 0.51 0.46 0.77 0.61 0.44 0.30 0.48 0.76 0.48 0.09 0.12 0.16 0.10 0.06 0.26 0.29 0.53 0.52 0.27 0.20 0.55 0.17
0.34 0.62 0.98 0.25 0.31 0.55 0.75 0.69 1.37 1.13 0.96 0.91 0.95 1.23 0.98 0.85 0.66 1.39 1.21 0.64 0.61 1.07 0.83 0.95 0.86 0.99 1.06 1.33 2.11 1.79 0.87 0.74 0.48 0.82 0.54 0.61 0.63 0.99 0.67 0.68 0.54 0.46 0.51 0.34 0.32 0.29 0.16 0.10 0.16 0.25 0.34 0.33 0.57 0.39 0.45 0.34 0.32 0.34 0.25 0.09 0.02 0.02 0.47 0.37 0.54 0.61 0.92 0.80 0.52 0.39 0.54 0.45 0.42 0.18 0.06 0.07 0.11 0.11 0.19 0.21 0.20 0.56 0.31 0.41 0.12
0.45 0.36 0.51 0.31 0.35 0.57 0.81 0.90 1.03 0.87 0.97 1.59 1.78 1.37 0.71 0.74 0.61 1.31 1.12 1.23 1.39 1.27 1.17 1.50 1.00 0.74 1.06 1.65 1.58 0.85 0.87 0.56 1.05 0.61 0.53 0.58 0.75 0.78 0.74 0.82 0.75 0.38 0.31 0.23 0.17 0.10 0.07 0.23 0.22 0.46 0.31 0.46 0.28 0.30 0.25 0.35 0.17 0.14 0.06 0.07 0.16 0.06 0.15 0.14 0.16 0.63 1.32 0.78 1.01 0.32 0.42 0.29 0.27 0.32 0.12 0.10 0.08 0.05 0.07 0.19 0.21 0.21 0.24 0.36 0.73
0.35 0.37 0.64 0.59 0.43 0.56 0.73 0.98 1.01 1.08 0.73 0.61 0.99 0.94 0.63 1.43 1.27 1.58 1.74 1.54 1.29 1.16 1.10 1.13 0.64 1.03 1.33 1.26 1.03 1.04 1.23 0.80 1.14 0.93 0.45 0.42 0.34 0.41 0.78 1.40 0.78 0.40 0.22 0.17 0.22 0.78 0.40 0.36 0.38 0.35 0.18 0.24 0.28 0.37 0.38 0.29 0.38 0.23 0.17 0.18 0.18 0.20 0.25 0.12 0.28 0.44 0.50 1.09 0.79 0.55 0.46 0.38 0.51 0.32 0.24 0.58 0.22 0.08 0.05 0.16 0.33 0.44 0.52 0.28 0.16
0.47 0.65 1.08 1.11 0.69 0.57 0.69 1.06 1.30 1.15 0.46 0.67 1.01 0.98 0.79 0.74 0.77 0.92 0.91 1.06 1.63 0.86 0.94 0.93 0.94 0.99 0.67 0.80 0.48 0.45 0.68 0.58 0.87 1.01 1.16 0.39 0.34 0.33 0.47 0.54 0.46 0.41 0.23 0.13 0.18 0.12 0.17 0.09 0.10 0.21 0.18 0.17 0.05 0.14 0.16 0.19 0.21 0.17 0.08 0.08 0.07 0.05 0.05 0.05 0.11 0.13 0.40 0.85 0.83 0.49 0.52 0.47 0.76 0.46 0.53 0.61 1.18 0.40 0.42 0.32 0.50 0.34 0.64 0.61 0.67
0.68 1.04 1.34 0.54 0.66 0.92 1.27 1.49 1.33 0.67 0.79 0.75 0.70 0.46 0.77 0.81 0.83 0.78 1.07 1.72 1.27 1.16 0.97 1.09 1.22 1.12 1.02 0.84 0.82 0.63 0.84 1.04 0.90 0.95 0.85 0.49 0.60 0.19 0.25 0.37 0.53 0.43 0.20 0.11 0.20 0.05 0.04 0.06 0.07 0.10 0.04 0.04 0.09 0.16 0.18 0.10 0.09 0.16 0.15 0.05 0.07 0.09 0.12 0.14 0.13 0.31 0.26 0.54 0.72 1.21 0.46 0.88 0.77 0.48 0.56 0.51 0.41 0.62 0.88 0.53 0.33 1.00 0.65 0.72 0.59
0.55 0.86 0.77 1.00 0.74 0.48 0.60 1.20 1.56 1.29 1.46 1.47 0.88 0.47 0.52 0.65 0.69 0.76 0.80 1.36 1.10 1.22 1.16 1.03 1.00 0.79 0.69 0.70 0.73 0.73 1.06 1.05 0.52 0.68 1.06 0.66 0.57 0.53 0.36 0.33 0.20 0.24 0.17 0.16 0.06 0.06 0.05 0.06 0.05 0.07 0.04 0.02 0.08 0.09 0.04 0.03 0.03 0.01 0.03 0.02 0.01 0.07 0.09 0.14 0.22 0.37 0.74 2.39 0.74 0.97 0.32 0.36 0.52 0.65 0.64 0.82 0.70 0.82 1.02 0.84 0.55 0.83 0.75 0.74 0.83
0.59 0.53 0.61 0.59 0.40 0.36 0.37 0.61 0.71 0.86 0.96 0.90 0.85 0.82 0.50 0.47 0.51 0.47 0.48 1.13 0.95 0.58 0.69 1.08 0.89 1.04 0.91 0.72 0.72 0.96 0.78 0.73 0.73 0.81 0.96 1.00 0.51 0.36 0.33 0.26 0.33 0.17 0.22 0.16 0.08 0.14 0.06 0.06 0.05 0.04 0.03 0.02 0.04 0.02 0.05 0.03 0.02 0.04 0.00 0.01 0.04 0.13 0.21 0.38 0.42 0.63 0.47 0.55 0.40 1.51 0.42 0.36 0.51 0.42 0.40 0.46 1.10 1.43 1.75 2.38 1.82 1.22 1.01 0.82 1.12
0.25 0.36 0.54 0.69 0.75 0.40 0.52 0.87 0.59 0.55 0.58 0.47 0.58 0.46 0.29 0.34 0.28 0.22 0.43 0.50 0.59 0.51 0.53 0.46 0.64 0.59 0.69 0.71 0.96 0.86 0.52 0.45 0.55 1.13 0.75 0.77 0.35 0.24 0.23 0.32 0.26 0.25 0.27 0.15 0.16 0.06 0.06 0.06 0.04 0.03 0.02 0.02 0.01 0.02 0.01 0.01 0.01 0.04 0.02 0.01 0.09 0.22 0.16 0.11 0.13 0.11 0.16 0.11 0.04 0.12 0.14 0.22 0.15 0.20 0.36 0.34 0.29 0.24 0.83 1.13 0.98 0.62 0.62 0.56 0.75
0.54 0.46 0.80 0.78 0.75 0.61 0.36 0.30 0.29 0.35 0.32 0.28 0.43 0.31 0.22 0.28 0.35 0.38 0.34 0.29 0.52 0.50 0.56 0.48 0.39 0.38 0.43 0.60 0.57 0.70 0.45 0.42 0.51 0.56 0.54 1.21 0.36 0.23 0.25 0.29 0.27 0.33 0.23 0.21 0.15 0.14 0.04 0.04 0.03 0.03 0.03 0.03 0.01 0.03 0.02 0.01 0.00 0.00 0.00 0.05 0.12 0.08 0.04 0.04 0.03 0.03 0.04 0.02 0.02 0.04 0.03 0.02 0.04 0.07 0.08 0.13 0.13 0.07 0.10 0.24 0.61 0.25 0.31 0.40 0.41
0.76 0.81 1.01 0.74 0.68 0.63 0.40 0.23 0.19 0.16 0.20 0.23 0.40 0.29 0.33 0.28 0.64 0.67 0.90 0.69 0.81 0.94 0.49 0.47 0.56 0.31 0.49 0.38 0.39 0.39 0.63 0.59 0.45 0.42 0.37 0.42 0.40 0.21 0.23 0.41 0.49 0.21 0.11 0.18 0.17 0.05 0.05 0.01 0.01 0.03 0.01 0.02 0.02 0.02 0.01 0.01 0.01 0.00 0.00 0.01 0.02 0.01 0.03 0.03 0.02 0.00 0.00 0.00 0.01 0.03 0.03 0.00 0.00 0.00 0.00 0.01 0.01 0.01 0.03 0.07 0.21 0.10 0.15 0.39 0.14
0.99 1.15 0.72 0.65 0.51 0.44 0.38 0.32 0.27 0.33 0.36 0.25 0.28 0.28 0.37 0.45 0.51 0.61 0.69 0.54 0.61 0.51 0.63 0.49 0.58 0.57 0.55 0.39 0.56 0.78 0.54 0.47 0.53 0.52 0.37 0.28 0.48 0.47 0.40 0.33 0.31 0.27 0.15 0.18 0.17 0.10 0.05 0.02 0.01 0.02 0.01 0.02 0.01 0.01 0.01 0.05 0.06 0.02 0.00 0.00 0.01 0.01 0.01 0.02 0.01 0.00 0.00 0.00 0.01 0.01 0.00 0.00 0.00 0.00 0.01 0.01 0.00 0.00 0.00 0.00 0.02 0.09 0.19 0.13 0.50
0.89 1.14 0.81 0.90 0.52 0.44 0.41 0.37 0.33 0.36 0.42 0.37 0.37 0.27 0.39 0.36 0.49 0.53 0.44 0.70 0.55 0.51 0.33 0.49 0.63 0.57 0.74 0.53 0.50 0.60 0.67 0.68 0.48 0.62 0.68 0.57 0.60 0.54 0.47 0.35 0.35 0.32 0.19 0.17 0.10 0.12 0.06 0.03 0.02 0.02 0.03 0.03 0.03 0.02 0.00 0.00 0.01 0.00 0.00 0.00 0.01 0.00 0.01 0.00 0.00 0.00 0.00 0.00 0.00 0.00 0.00 0.00 0.00 0.00 0.00 0.01 0.01 0.00 0.00 0.00 0.02 0.01 0.04 0.02 0.03
0.97 0.75 0.79 0.54 0.42 0.34 0.34 0.39 0.43 0.38 0.34 0.54 0.59 0.69 0.65 0.45 0.60 0.77 0.77 0.96 0.70 0.63 0.52 0.47 0.63 0.61 0.40 0.37 0.44 0.70 0.33 0.60 0.58 0.46 0.54 0.54 0.55 0.57 0.66 0.74 0.58 0.70 0.35 0.24 0.29 0.22 0.26 0.07 0.06 0.03 0.03 0.04 0.03 0.02 0.00 0.00 0.00 0.00 0.00 0.00 0.00 0.00 0.00 0.00 0.00 0.00 0.00 0.00 0.00 0.00 0.00 0.00 0.00 0.00 0.00 0.00 0.00 0.00 0.00 0.00 0.00 0.30 0.14 0.02 0.02
0.93 0.64 0.49 0.43 0.44 0.46 0.47 0.46 0.37 0.39 0.46 0.63 0.62 0.79 0.94 0.77 0.88 1.06 0.72 0.61 0.61 0.65 0.69 0.62 0.39 0.53 0.58 0.52 0.63 0.77 0.57 0.38 0.39 0.54 0.51 0.49 0.62 0.57 0.93 0.66 0.62 0.43 0.45 0.56 0.48 0.37 0.22 0.17 0.19 0.14 0.03 0.03 0.04 0.01 0.00 0.01 0.00 0.00 0.00 0.00 0.00 0.00 0.00 0.00 0.00 0.00 0.00 0.00 0.00 0.00 0.00 0.00 0.00 0.00 0.00 0.00 0.00 0.00 0.00 0.00 0.00 0.00 0.00 0.00 0.01
0.67 0.58 0.50 0.50 0.61 0.48 0.40 0.33 0.55 0.53 0.33 0.29 0.73 0.72 0.63 0.54 0.83 0.58 0.39 0.53 0.82 0.53 0.55 0.34 0.45 0.42 0.45 0.44 0.62 0.63 0.57 0.64 0.76 0.59 0.50 0.45 0.62 1.02 0.68 0.55 0.56 0.46 0.64 0.72 0.45 1.10 0.25 0.23 0.12 0.09 0.08 0.04 0.02 0.01 0.01 0.00 0.00 0.00 0.00 0.00 0.00 0.00 0.00 0.00 0.00 0.00 0.00 0.00 0.00 0.00 0.00 0.00 0.00 0.00 0.00 0.00 0.00 0.00 0.00 0.00 0.00 0.00 0.00 0.00 0.00
0.55 0.50 0.44 0.47 0.54 0.53 0.74 0.47 0.74 0.57 0.57 0.49 0.55 0.48 0.54 0.53 0.43 0.47 0.50 0.49 0.54 0.83 0.63 0.70 0.55 0.59 0.70 0.61 0.42 0.64 0.55 0.92 0.71 0.71 0.53 0.37 0.42 0.50 0.55 0.55 0.49 0.62 0.60 0.67 0.60 0.58 0.42 0.28 0.67 0.18 0.11 0.07 0.11 0.03 0.01 0.00 0.00 0.00 0.00 0.00 0.00 0.00 0.00 0.00 0.00 0.00 0.00 0.00 0.00 0.00 0.00 0.00 0.00 0.00 0.00 0.00 0.00 0.00 0.00 0.00 0.00 0.00 0.00 0.00 0.00
0.36 0.43 0.42 0.46 0.39 0.40 0.36 0.45 0.22 0.30 0.34 0.45 0.33 0.57 0.35 0.50 0.62 0.27 0.53 0.28 0.68 0.79 0.52 0.48 0.56 0.83 0.48 0.54 0.67 0.68 0.59 0.49 0.53 0.70 0.56 0.50 0.43 0.41 0.52 0.58 0.51 0.40 0.38 0.41 0.44 0.49 0.46 0.32 0.37 0.33 0.20 0.13 0.07 0.11 0.04 0.00 0.00 0.00 0.00 0.00 0.00 0.00 0.00 0.00 0.00 0.00 0.00 0.00 0.00 0.00 0.00 0.00 0.00 0.00 0.00 0.00 0.00 0.00 0.00 0.00 0.00 0.00 0.00 0.00 0.00
0.34 0.37 0.44 0.38 0.33 0.27 0.34 0.46 0.42 0.35 0.76 0.36 0.46 0.29 0.22 0.36 0.31 0.29 0.30 0.42 0.74 0.87 0.65 0.84 0.83 0.50 0.69 0.56 0.46 0.53 0.57 0.52 0.71 0.50 0.49 0.56 0.67 0.77 0.61 0.49 0.56 0.51 0.79 0.57 0.49 0.44 0.31 0.37 0.51 0.46 0.28 0.17 0.12 0.06 0.04 0.00 0.00 0.01 0.00 0.00 0.00 0.00 0.00 0.00 0.00 0.00 0.00 0.00 0.00 0.00 0.00 0.00 0.00 0.00 0.00 0.00 0.00 0.00 0.00 0.00 0.00 0.00 0.00 0.00 0.00
0.26 0.31 0.40 0.29 0.36 0.36 0.37 0.28 0.33 0.44 0.36 0.32 0.22 0.43 0.51 0.46 0.35 0.37 0.29 0.44 0.74 0.79 0.68 0.51 0.69 0.68 0.53 0.67 0.41 0.38 0.45 0.54 0.67 0.55 0.56 0.47 0.45 0.66 0.43 0.45 0.42 0.39 0.61 0.38 0.40 0.38 0.39 0.40 0.64 0.47 0.39 0.31 0.23 0.20 0.06 0.03 0.02 0.13 0.02 0.00 0.01 0.06 0.00 0.00 0.00 0.00 0.00 0.00 0.00 0.00 0.00 0.00 0.00 0.00 0.00 0.00 0.00 0.00 0.00 0.00 0.00 0.00 0.00 0.00 0.00
0.56 0.36 0.23 0.35 0.43 0.28 0.30 0.22 0.31 0.46 0.43 0.42 0.41 0.32 0.41 0.55 0.63 0.48 0.25 0.25 0.50 0.54 0.56 0.67 1.05 0.83 0.63 0.52 0.61 0.63 0.86 0.55 0.47 0.42 0.36 0.44 0.52 0.37 0.50 0.43 0.44 0.45 0.53 0.43 0.46 0.50 0.58 0.47 0.38 0.33 0.57 0.46 0.87 0.61 0.16 0.19 0.82 0.35 1.17 0.55 0.01 0.05 0.03 0.01 0.00 0.00 0.00 0.00 0.00 0.00 0.00 0.00 0.00 0.00 0.00 0.00 0.00 0.00 0.00 0.00 0.00 0.00 0.00 0.00 0.00
0.47 0.31 0.43 0.29 0.30 0.38 0.42 0.32 0.48 0.35 0.39 0.41 0.57 0.29 0.32 0.66 0.76 0.36 0.50 0.47 0.37 0.58 0.63 0.63 0.55 0.65 0.62 0.63 0.63 0.74 0.70 0.67 0.41 0.40 0.55 0.63 0.51 0.42 0.38 0.38 0.54 0.51 0.48 0.50 0.74 0.60 0.50 0.38 0.39 0.88 0.65 0.87 0.54 0.38 0.67 0.25 0.12 0.03 0.28 0.50 0.77 1.34 1.29 0.56 0.00 0.00 0.00 0.00 0.00 0.00 0.00 0.00 0.00 0.00 0.00 0.00 0.00 0.00 0.00 0.00 0.00 0.00 0.00 0.00 0.00
0.69 0.83 0.72 0.49 0.45 0.40 0.30 0.36 0.51 0.85 0.34 0.34 0.26 0.54 0.48 0.35 0.48 0.32 0.42 0.50 0.50 0.40 0.38 0.72 0.51 0.52 0.68 0.71 0.61 0.67 0.87 1.05 0.59 0.47 0.48 0.54 0.65 0.44 0.46 0.46 0.51 0.53 0.60 0.63 0.62 0.96 0.70 0.73 0.97 0.75 0.78 0.51 0.57 0.48 0.34 0.49 1.16 1.23 1.09 0.09 0.24 0.26 0.25 0.10 0.03 0.04 0.00 0.00 0.00 0.00 0.00 0.00 0.00 0.00 0.00 0.00 0.00 0.00 0.00 0.00 0.00 0.00 0.00 0.00 0.00
0.76 0.81 0.73 0.56 0.50 0.31 0.34 0.91 0.92 0.72 0.57 0.44 0.32 0.26 0.29 0.48 0.45 0.62 0.34 0.34 0.36 0.41 0.61 0.43 0.60 0.72 0.66 0.46 0.65 1.47 0.99 0.72 0.72 0.71 0.85 0.79 0.60 0.41 0.37 0.52 0.69 0.82 0.63 0.69 0.77 0.87 0.92 0.92 0.95 0.70 0.52 0.56 0.44 0.71 1.44 1.21 0.54 0.82 0.44 0.24 0.08 0.06 0.05 0.05 0.04 0.03 0.01 0.00 0.00 0.00 0.00 0.00 0.00 0.00 0.00 0.00 0.00 0.00 0.00 0.00 0.00 0.00 0.00 0.00 0.00
0.98 0.54 0.52 0.62 0.33 0.29 0.28 0.54 0.65 0.58 0.45 0.46 0.53 0.63 0.60 0.59 0.32 0.27 0.59 0.49 0.26 0.37 0.44 0.39 0.28 0.34 0.40 0.54 0.49 0.79 0.66 0.68 0.78 0.81 1.16 1.17 0.88 0.54 0.31 0.49 0.76 0.58 0.49 0.81 1.08 0.94 0.64 0.60 1.13 1.04 0.66 0.51 0.47 0.42 0.35 0.39 0.34 0.38 0.24 0.17 0.11 0.11 0.38 0.24 0.02 0.02 0.02 0.02 0.00 0.00 0.00 0.00 0.00 0.00 0.00 0.00 0.00 0.00 0.00 0.00 0.00 0.00 0.00 0.00 0.00
0.57 0.45 0.38 0.39 0.42 0.44 0.34 0.33 0.92 0.73 0.84 0.43 0.38 0.42 0.38 0.31 0.35 0.32 0.69 0.78 0.43 0.36 0.37 0.43 0.41 0.37 0.37 0.37 0.42 0.38 0.17 0.38 0.50 0.39 0.40 0.42 0.41 0.60 0.76 0.89 0.67 0.57 0.63 0.61 0.70 0.84 0.89 0.73 0.74 0.66 0.64 0.51 0.48 0.42 0.34 0.30 0.27 0.15 0.37 0.31 0.47 0.28 0.12 1.01 3.09 0.68 0.04 0.06 0.57 0.06 0.00 0.00 0.00 0.00 0.00 0.00 0.00 0.00 0.00 0.00 0.00 0.00 0.00 0.00 0.00
0.44 0.50 0.45 0.46 0.32 1.12 0.58 0.49 0.43 0.41 0.24 0.17 0.22 0.23 0.20 0.18 0.19 0.33 0.78 0.79 0.20 0.30 0.31 0.67 0.35 0.36 0.26 0.63 0.94 0.53 0.45 0.50 1.13 0.22 0.39 0.31 0.24 0.26 0.32 0.41 0.65 0.67 0.63 0.56 0.55 1.56 1.00 0.98 2.45 3.67 1.76 0.49 0.30 0.34 0.29 0.31 0.29 0.23 0.14 0.19 0.47 0.17 0.08 0.22 0.23 0.20 0.29 0.12 0.08 0.63 0.32 0.00 0.00 0.00 0.00 0.00 0.00 0.00 0.00 0.00 0.00 0.00 0.00 0.00 0.00
0.97 0.68 0.45 0.26 0.52 0.71 0.68 0.47 0.48 0.50 0.48 0.63 0.22 0.11 0.06 0.04 0.06 0.48 0.67 0.46 0.21 0.36 0.37 0.45 0.65 0.42 0.78 1.07 1.10 0.51 0.43 0.47 0.37 1.14 1.06 0.68 0.39 0.23 0.39 0.23 0.27 0.36 0.52 1.28 0.84 0.86 0.85 1.35 1.15 1.03 1.72 0.86 0.55 0.44 0.35 0.29 0.26 0.36 0.26 0.22 0.11 0.29 0.17 0.12 0.09 0.04 0.04 0.09 0.05 0.02 0.02 0.01 0.00 0.00 0.00 0.00 0.00 0.00 0.00 0.00 0.00 0.00 0.00 0.00 0.00
0.90 0.59 0.80 0.35 0.40 0.78 0.50 0.78 0.66 0.99 1.15 0.71 0.41 0.28 0.22 0.21 0.22 0.35 0.51 0.60 0.42 0.50 0.56 0.98 0.58 0.75 0.56 1.06 0.68 0.73 0.57 0.30 0.33 0.38 0.28 0.43 0.48 0.32 0.47 0.30 0.25 0.37 0.44 0.44 0.73 0.72 0.85 1.11 0.95 1.66 0.61 0.48 0.45 0.63 0.36 0.46 0.33 0.33 0.28 0.27 0.20 0.14 0.11 0.13 0.12 0.04 0.01 0.10 0.06 0.04 0.02 0.01 0.02 0.01 0.00 0.00 0.00 0.00 0.00 0.00 0.00 0.00 0.00 0.00 0.00
0.90 0.76 0.61 0.53 0.62 0.66 0.48 0.28 0.40 0.72 1.25 0.57 0.36 0.19 0.12 0.10 0.11 0.23 0.60 0.61 0.59 0.54 0.50 0.73 0.90 1.04 1.62 0.71 0.58 0.50 0.56 0.44 0.62 0.54 0.68 0.53 0.54 0.72 0.48 0.51 0.59 0.40 0.68 0.52 0.92 0.42 0.67 0.94 1.09 0.74 0.64 0.59 0.58 0.66 0.71 0.65 0.81 0.64 0.51 0.39 0.28 0.21 0.15 0.12 0.12 0.44 0.81 0.69 0.70 0.12 0.07 0.02 0.01 0.01 0.01 0.02 0.03 0.00 0.00 0.00 0.00 0.00 0.00 0.00 0.00
1.02 0.76 0.60 0.51 0.47 0.56 0.53 0.49 0.60 0.71 0.47 0.36 0.16 0.47 0.35 0.31 0.39 0.40 0.71 0.58 0.67 0.50 0.72 1.21 0.61 0.37 1.11 0.63 0.96 0.56 0.50 0.44 0.58 0.44 0.46 0.39 0.41 0.48 0.76 0.98 1.13 0.81 0.78 0.73 0.59 0.64 0.45 0.58 0.81 0.88 1.39 1.18 1.06 0.84 1.58 0.95 1.19 0.67 0.64 0.69 0.39 0.30 0.36 0.27 0.40 0.13 0.29 0.26 1.51 0.49 0.28 0.30 0.10 0.06 0.04 0.04 0.06 0.05 0.16 0.05 0.00 0.00 0.00 0.00 0.01
0.50 0.51 0.41 0.51 0.42 0.35 0.37 0.28 0.27 1.17 1.20 0.52 0.36 0.24 0.18 0.34 0.48 0.42 0.44 0.57 0.65 0.53 1.27 0.84 0.78 0.59 1.31 0.92 0.65 0.49 0.43 0.40 0.35 0.33 0.47 0.48 0.68 0.46 0.43 0.74 0.85 0.67 0.50 0.36 0.32 0.40 0.80 0.87 0.76 1.06 0.64 1.30 0.67 0.82 0.79 0.69 0.99 0.98 1.06 1.14 1.52 1.34 1.02 0.45 0.32 0.31 0.42 0.24 0.29 0.39 0.35 0.41 0.56 0.45 0.45 0.20 0.23 0.13 0.02 0.08 0.08 0.04 0.04 0.05 0.04
0.50 0.83 0.34 0.34 0.18 0.53 0.27 0.26 0.24 0.32 0.24 0.19 0.09 0.23 0.12 0.12 0.27 0.26 0.20 0.32 0.41 0.72 0.66 0.46 1.12 1.11 0.57 0.59 0.89 0.69 0.83 0.87 0.32 0.35 0.46 0.42 1.04 1.00 0.75 1.01 0.53 0.54 0.38 0.34 0.42 0.35 0.40 0.43 0.37 0.48 0.43 0.41 0.47 0.70 0.65 0.74 1.38 0.88 1.35 1.18 1.07 0.87 1.44 1.03 0.67 0.40 0.31 0.51 0.50 0.79 0.19 0.18 0.46 0.30 0.38 0.60 0.38 0.30 0.64 0.52 0.41 0.10 0.30 0.49 0.50
0.81 0.70 0.92 0.38 0.39 0.38 0.63 0.47 0.26 0.45 0.71 0.59 0.13 0.14 0.14 0.17 0.20 0.21 0.56 0.37 0.35 0.28 0.57 0.51 0.56 0.50 0.65 0.44 0.32 1.03 0.63 0.50 0.47 0.30 0.34 0.49 0.80 0.78 0.65 0.35 0.50 0.52 0.43 0.42 1.10 0.71 0.53 0.59 0.54 0.88 0.70 0.37 0.37 0.42 0.53 0.72 1.08 1.17 1.60 1.65 1.28 1.07 0.92 0.77 0.88 0.84 0.64 0.62 0.65 0.78 0.51 0.20 0.31 0.32 0.43 0.40 0.38 0.20 0.17 0.51 0.70 0.43 0.15 0.20 0.13
1.01 0.93 0.89 0.68 0.69 0.46 0.55 0.59 0.41 0.31 0.33 0.28 0.17 0.25 0.31 0.48 0.56 0.66 0.80 0.70 0.31 0.64 0.69 0.54 0.62 0.38 0.48 0.42 0.28 0.29 0.57 0.31 0.46 0.36 0.38 0.75 0.95 0.92 0.77 0.64 0.87 0.53 0.39 0.50 0.72 0.93 1.20 1.26 1.31 0.97 1.69 1.12 1.78 1.32 1.51 0.55 0.68 0.79 0.88 1.02 1.38 1.03 1.03 0.94 0.78 0.81 0.89 0.91 0.61 1.15 0.89 0.29 0.29 0.40 0.78 0.91 0.40 0.29 0.44 0.22 0.26 0.27 0.20 0.12 0.05